Location: Eitze
(52.9840°N, 9.6894°E)
Time: 05:55:25
(UTC+00:00)

Cosmos 1766 - Pass Details

Date: 19 May 2025
Orbit: 443 x 456 km, 82.5° (Epoch: 22 June)

Event Time Altitude Azimuth Distance (km) Brightness Sun altitude
Rises 21:27:25 0° 356° (N) 2,468 8.0 -13.2°
Reaches altitude 10° 21:29:41 10° 8° (N) 1,587 6.5 -13.4°
Maximum altitude 21:32:45 29° 71° (ENE) 860 4.2 -13.6°
Enters shadow 21:34:24 19° 116° (ESE) 1,122 4.5 -13.7°
